Volver al catálogo

ARIANE 2 DEB

LostGTO
NORAD 27036·DEBRIS·🇫🇷 France

Lanzado Jan 27, 1989 desde Guiana Space Centre

Loading…

TLE

ObsoletoSource: Space-Track

Época: May 6, 2025, 14:12 UTC

1 27036U 89006R   25126.59177800 -.00000215  00000-0  97618-3 0  9997
2 27036   9.1887   5.3472 7148138 217.1432  12.5034  2.25737870 16841

Sigue ARIANE 2 DEB en tiempo real con AllMySat

Download on the App Store